Barnwell, SC

9:50 AM EST on November 21, 2019 (GMT -0500)
Barnwell County

Weather History for KBNL - September, 2019

Change the Weather History Date:

Wednesday, September 11, 2019

  Actual Average (WUND) Record (WUND)
Temperature  
Mean Temperature 81 °F -  
Max Temperature 93 °F - - (-1)
Min Temperature 69 °F - - (-1)
Cooling Degree Days 16    
Growing Degree Days 31 (Base 50)    
Moisture  
Dew Point 71 °F    
Average Humidity 76    
Maximum Humidity 100    
Minimum Humidity 43    
Precipitation  
Precipitation 0.00 in - - ()
Sea Level Pressure  
Sea Level Pressure 30.21 in    
Wind  
Wind Speed 1 mph (ENE)    
Max Wind Speed 9 mph    
Max Gust Speed 15 mph    
Visibility 7 miles    
Events Fog    
Averages and records for this station are not official NWS values.
T = Trace of Precipitation, MM = Missing Value Source: NWS Daily Summary

Daily Weather History Graph

Daily Weather History Graph

Search for Another Location

Airport or City:

Astronomy

Sep. 11, 2019 Rise Set
Actual Time 7:06 AM EDT 7:37 PM EDT
Civil Twilight 6:41 AM EDT 8:02 PM EDT
Nautical Twilight 6:12 AM EDT 8:31 PM EDT
Astronomical Twilight 5:42 AM EDT 9:01 PM EDT
Moon 6:39 PM EDT (9/11) 4:38 AM EDT (9/11)
Length of Visible Light 13h 21m
Length of Day
12h 31m
Waxing Gibbous, 94% of the Moon is Illuminated
Sep 11
Waxing Gibbous
Sep 14
Full
Sep 21
Last Quarter
Sep 28
New
Oct 5
First Quarter

Hourly Weather History & Observations

Time (EDT) Temp. Heat Index Dew Point Humidity Pressure Visibility Wind Dir Wind Speed Gust Speed Precip Events Conditions
12:15 AM 75.2 °F - 73.4 °F 94% 30.25 in 10.0 mi Calm Calm - N/A   Clear
12:35 AM 75.2 °F - 73.4 °F 94% 30.25 in 10.0 mi Calm Calm - N/A   Clear
12:55 AM 75.2 °F - 73.4 °F 94% 30.25 in 10.0 mi Calm Calm - N/A   Scattered Clouds
1:15 AM 75.2 °F - 73.4 °F 94% 30.25 in 10.0 mi Calm Calm - N/A   Scattered Clouds
1:35 AM 75.2 °F - 73.4 °F 94% 30.25 in 8.0 mi Calm Calm - N/A   Mostly Cloudy
1:55 AM 73.4 °F - 71.6 °F 94% 30.25 in 9.0 mi Calm Calm - N/A   Mostly Cloudy
2:15 AM 73.4 °F - 73.4 °F 100% 30.24 in 8.0 mi Calm Calm - N/A   Overcast
2:35 AM 73.4 °F - 71.6 °F 94% 30.23 in 6.0 mi Calm Calm - N/A   Mostly Cloudy
2:55 AM 73.4 °F - 71.6 °F 94% 30.23 in 9.0 mi Calm Calm - N/A   Scattered Clouds
3:15 AM 71.6 °F - 69.8 °F 94% 30.23 in 7.0 mi Calm Calm - N/A   Clear
3:35 AM 71.6 °F - 69.8 °F 94% 30.23 in 8.0 mi Calm Calm - N/A   Clear
3:55 AM 71.6 °F - 69.8 °F 94% 30.23 in 6.0 mi Calm Calm - N/A   Partly Cloudy
4:15 AM 69.8 °F - 69.8 °F 100% 30.23 in 7.0 mi Calm Calm - N/A   Mostly Cloudy
4:35 AM 71.6 °F - 69.8 °F 94% 30.23 in 0.2 mi Calm Calm - N/A Fog Fog
4:55 AM 71.6 °F - 69.8 °F 94% 30.23 in 0.8 mi North 3.5 mph - N/A   Overcast
5:35 AM 71.6 °F - 71.6 °F 100% 30.23 in 0.2 mi Calm Calm - N/A Fog Fog
6:15 AM 73.4 °F - 71.6 °F 94% 30.23 in 0.5 mi Calm Calm - N/A Fog Fog
6:35 AM 73.4 °F - 73.4 °F 100% 30.24 in 1.0 mi Calm Calm - N/A   Overcast
6:55 AM 73.4 °F - 73.4 °F 100% 30.25 in 0.2 mi Calm Calm - N/A Fog Fog
7:15 AM 73.4 °F - 73.4 °F 100% 30.25 in 0.2 mi Calm Calm - N/A Fog Fog
7:35 AM 73.4 °F - 73.4 °F 100% 30.26 in 0.2 mi Calm Calm - N/A Fog Fog
7:55 AM 73.4 °F - 73.4 °F 100% 30.27 in 0.2 mi Calm Calm - N/A Fog Fog
8:15 AM 75.2 °F - 73.4 °F 94% 30.28 in 0.2 mi North 3.5 mph - N/A Fog Fog
8:35 AM 75.2 °F - 75.2 °F 100% 30.29 in 0.2 mi Calm Calm - N/A Fog Fog
8:55 AM 75.2 °F - 75.2 °F 100% 30.29 in 2.0 mi Calm Calm - N/A   Overcast
9:35 AM 77.0 °F - 77.0 °F 100% 30.30 in 4.0 mi Calm Calm - N/A   Overcast
9:55 AM 77.0 °F - 77.0 °F 100% 30.30 in 8.0 mi NNE 3.5 mph - N/A   Overcast
10:15 AM 80.6 °F 87.1 °F 77.0 °F 89% 30.29 in 10.0 mi NE 4.6 mph - N/A   Mostly Cloudy
10:35 AM 80.6 °F 86.2 °F 75.2 °F 84% 30.29 in 10.0 mi NNE 4.6 mph - N/A   Mostly Cloudy
10:55 AM 82.4 °F 88.2 °F 73.4 °F 74% 30.29 in 10.0 mi Calm Calm - N/A   Mostly Cloudy
11:15 AM 82.4 °F 88.2 °F 73.4 °F 74% 30.29 in 10.0 mi Calm Calm - N/A   Scattered Clouds
11:35 AM 84.2 °F 90.9 °F 73.4 °F 70% 30.28 in 10.0 mi Calm Calm - N/A   Scattered Clouds
11:55 AM 84.2 °F 90.9 °F 73.4 °F 70% 30.27 in 10.0 mi NE 4.6 mph - N/A   Mostly Cloudy
12:15 PM 84.2 °F 90.9 °F 73.4 °F 70% 30.26 in 10.0 mi NE 5.8 mph - N/A   Scattered Clouds
12:35 PM 86.0 °F 93.4 °F 73.4 °F 66% 30.25 in 10.0 mi East 5.8 mph - N/A   Partly Cloudy
12:55 PM 87.8 °F 95.6 °F 73.4 °F 62% 30.24 in 10.0 mi ENE 5.8 mph - N/A   Scattered Clouds
1:15 PM 89.6 °F 96.2 °F 71.6 °F 55% 30.23 in 10.0 mi Calm Calm 11.5 mph N/A   Clear
1:35 PM 89.6 °F 96.2 °F 71.6 °F 55% 30.22 in 10.0 mi North 8.1 mph - N/A   Scattered Clouds
1:55 PM 89.6 °F 94.7 °F 69.8 °F 52% 30.21 in 10.0 mi Variable 5.8 mph 15.0 mph N/A   Partly Cloudy
3:15 PM 93.2 °F 98.8 °F 69.8 °F 46% 30.18 in 10.0 mi ENE 4.6 mph - N/A   Mostly Cloudy
3:35 PM 91.4 °F 96.8 °F 69.8 °F 49% 30.17 in 10.0 mi North 8.1 mph - N/A   Mostly Cloudy
3:55 PM 93.2 °F 98.8 °F 69.8 °F 46% 30.16 in 10.0 mi NE 8.1 mph - N/A   Partly Cloudy
4:15 PM 93.2 °F 97.7 °F 68.0 °F 44% 30.15 in 10.0 mi ENE 3.5 mph 11.5 mph N/A   Clear
4:55 PM 93.2 °F 97.7 °F 68.0 °F 44% 30.14 in 10.0 mi ENE 8.1 mph - N/A   Mostly Cloudy
5:15 PM 93.2 °F 97.7 °F 68.0 °F 44% 30.14 in 10.0 mi East 8.1 mph - N/A   Scattered Clouds
5:35 PM 93.2 °F 97.7 °F 68.0 °F 44% 30.14 in 10.0 mi ENE 9.2 mph - N/A   Partly Cloudy
5:55 PM 91.4 °F 95.4 °F 68.0 °F 46% 30.13 in 10.0 mi East 9.2 mph - N/A   Clear
6:15 PM 91.4 °F 94.0 °F 66.2 °F 43% 30.13 in - East 4.6 mph - N/A   Clear
6:35 PM 91.4 °F 95.4 °F 68.0 °F 46% 30.13 in - East 6.9 mph - N/A   Clear
6:55 PM 89.6 °F 93.4 °F 68.0 °F 49% 30.12 in - East 4.6 mph - N/A   Clear
7:15 PM 89.6 °F 93.4 °F 68.0 °F 49% 30.12 in - ESE 5.8 mph - N/A   Clear
7:35 PM 87.8 °F 91.4 °F 68.0 °F 52% 30.12 in - ESE 4.6 mph - N/A   Clear
7:55 PM 86.0 °F 90.4 °F 69.8 °F 58% 30.12 in - SE 5.8 mph - N/A   Clear
8:15 PM 84.2 °F 88.4 °F 69.8 °F 62% 30.12 in - Calm Calm - N/A   Clear
8:35 PM 84.2 °F 88.4 °F 69.8 °F 62% 30.12 in - Calm Calm - N/A   Clear
8:55 PM 82.4 °F 86.3 °F 69.8 °F 66% 30.13 in - Calm Calm - N/A   Clear
9:15 PM 80.6 °F 83.9 °F 69.8 °F 70% 30.14 in - Calm Calm - N/A   Clear
9:35 PM 78.8 °F - 69.8 °F 74% 30.14 in - Calm Calm - N/A   Clear
9:55 PM 78.8 °F - 69.8 °F 74% 30.15 in - Calm Calm - N/A   Clear
10:15 PM 77.0 °F - 69.8 °F 78% 30.15 in - Calm Calm - N/A   Partly Cloudy
10:35 PM 77.0 °F - 69.8 °F 78% 30.16 in - Calm Calm - N/A   Scattered Clouds
10:55 PM 77.0 °F - 69.8 °F 78% 30.17 in - Calm Calm - N/A   Mostly Cloudy
11:55 PM 77.0 °F - 71.6 °F 83% 30.16 in - Calm Calm - N/A   Clear